Wind_Speed
24 23 24 25 25 24 24 23 24 24 24 24 24 25 25 24 25 25 25 25 23 22 20 20 19 20 21 20 20 19 20 20 20 20 20 21 20 20 20 20 20 21 21 21
25 24 25 25 25 24 25 24 24 25 26 25 25 26 27 26 26 26 26 25 24 23 21 21 21 21 21 21 21 20 20 21 21 21 21 21 21 20 21 21 21 22 22 22
26 25 26 27 24 24 24 25 25 27 26 26 26 26 27 28 28 27 26 26 25 24 23 23 23 22 21 21 21 20 21 21 21 21 21 21 21 21 21 22 22 22 23 23
26 25 27 26 24 24 24 24 25 26 26 26 27 27 28 28 27 27 27 26 25 25 24 24 23 22 23 23 22 21 21 22 22 22 21 21 22 22 22 23 23 23 23 23
29 28 28 26 25 24 25 26 25 25 25 26 27 28 28 28 27 27 27 27 26 26 26 26 25 23 23 23 22 22 22 23 23 23 23 22 23 23 24 24 24 24 24 25
30 31 30 27 25 25 26 27 26 26 26 27 27 28 28 28 28 29 28 28 28 27 27 27 26 25 25 25 25 24 23 24 25 25 25 24 24 24 24 25 25 25 25 25
31 31 30 27 26 25 27 27 26 27 27 28 29 29 28 28 29 29 28 28 28 28 29 29 29 28 27 26 26 25 25 25 25 25 25 25 25 25 25 25 25 25 25 26
31 31 30 28 27 27 28 28 27 27 27 28 28 28 29 29 29 28 29 29 29 29 29 30 30 29 27 27 27 27 26 25 25 26 26 26 26 26 26 26 26 26 26 27
31 31 30 28 28 27 27 28 28 27 28 28 29 28 28 28 28 28 29 30 30 29 29 29 29 29 29 28 28 28 28 27 26 26 25 25 26 26 26 26 26 27 27 27
30 29 30 29 29 28 27 28 28 28 28 28 28 28 28 28 29 29 29 29 30 29 29 29 30 30 30 28 27 28 27 27 27 26 25 25 26 26 26 26 26 27 27 27
31 31 31 30 30 29 30 30 29 28 28 28 27 27 28 28 29 29 29 29 29 29 29 29 29 28 27 28 28 27 27 27 26 25 26 26 26 26 26 26 26 26 26 27
32 31 30 29 29 30 30 30 29 29 29 29 29 28 28 29 29 29 29 30 28 28 28 27 27 27 27 27 27 27 27 26 26 25 25 25 25 25 26 26 27 27 27 28
30 30 29 28 29 29 29 29 29 29 29 29 29 29 29 29 29 29 27 27 27 27 27 26 27 27 27 27 27 26 26 26 25 25 25 25 25 26 26 27 27 28 28 28
28 29 29 29 28 28 28 28 29 29 30 30 30 30 29 29 29 28 28 28 28 27 27 27 27 27 27 27 26 26 26 26 26 25 25 25 26 26 26 26 27 28 28 27
26 27 28 28 28 28 28 28 29 30 30 30 30 30 30 30 29 29 29 29 28 28 27 27 27 26 26 26 26 26 26 26 26 26 26 26 27 27 27 26 27 27 27 27
25 26 26 26 26 27 27 28 28 29 29 29 29 30 30 30 29 29 29 28 28 27 27 27 26 26 26 26 26 26 26 26 26 26 27 27 27 27 27 26 26 26 26 26
26 27 26 26 25 25 26 27 28 29 29 29 29 29 28 29 29 28 28 27 27 27 27 27 26 26 26 26 26 26 26 27 26 26 27 27 27 27 26 25 25 25 25 25
27 27 27 26 26 25 25 25 26 28 29 30 30 30 29 29 28 28 28 28 27 27 26 26 26 26 26 25 25 26 26 26 27 26 26 26 25 24 24 25 24 24 24 24
26 26 26 26 26 25 26 26 26 26 27 27 27 29 30 30 29 28 28 28 27 27 26 26 26 26 26 26 26 25 25 25 25 25 25 25 24 24 24 24 24 23 22 22
25 25 26 26 26 26 26 26 26 26 26 26 26 26 27 27 27 27 27 28 27 27 26 26 25 25 25 26 25 25 25 25 25 24 24 24 24 23 24 24 23 22 21 22
23 24 25 26 26 27 26 26 26 26 26 26 26 26 26 26 26 26 26 26 26 26 26 26 26 25 25 25 26 26 25 25 25 24 23 23 23 23 23 23 22 22 22 23
21 22 23 24 24 25 25 25 25 26 25 26 26 26 25 24 24 25 25 25 24 24 24 24 24 24 24 24 25 25 25 24 24 23 23 22 22 22 22 22 22 22 22 22
19 19 20 21 22 23 24 24 24 24 24 24 23 22 22 22 23 23 22 22 22 21 21 21 21 22 22 23 23 23 23 23 23 23 23 22 22 22 23 23 22 21 21 22
18 18 18 18 19 20 20 21 21 21 21 22 22 21 21 21 21 20 20 20 20 20 21 21 20 20 21 21 21 21 21 21 21 21 21 21 21 21 22 22 21 21 21 21
16 17 17 18 18 19 18 18 19 19 19 19 20 20 19 19 19 19 19 19 20 20 20 19 19 19 19 19 19 19 19 19 20 20 19 20 20 20 21 21 21 21 20 20
14 15 16 16 16 17 16 17 17 19 19 18 18 18 18 19 19 18 18 18 18 18 18 17 17 17 17 18 18 19 19 19 19 19 19 19 19 19 19 20 19 18 19 19
12 13 13 14 14 14 14 15 16 17 18 18 17 17 17 17 17 16 16 16 16 16 16 16 16 16 17 18 18 18 18 18 18 18 18 18 18 18 19 19 18 18 18 18
Wind_Direction
249 248 251 253 255 258 262 268 274 278 281 283 283 285 286 288 289 290 292 292 294 290 288 293 293 293 294 293 291 290 289 289 290 290 290 290 290 288 284 281 277 275 275 276
250 248 250 253 254 258 260 266 273 277 278 278 278 281 282 283 285 285 289 290 292 289 287 289 291 290 291 293 292 290 289 289 288 288 289 289 289 287 284 281 278 276 275 275
251 252 253 252 254 256 257 260 267 272 275 275 276 278 280 282 283 285 289 290 290 289 290 290 292 289 286 289 289 287 287 286 287 288 287 287 287 284 284 282 279 277 277 276
253 254 254 256 256 257 258 260 265 271 275 274 276 278 279 281 282 283 286 287 287 287 288 289 292 291 289 289 286 284 284 284 286 287 287 286 285 285 283 281 280 277 277 277
254 255 256 256 256 257 259 260 262 267 272 273 275 277 280 282 283 284 283 285 287 289 289 287 288 289 288 289 289 288 283 283 285 285 284 284 283 283 281 280 280 279 278 277
254 255 256 256 255 256 258 259 262 266 271 272 273 276 279 281 282 283 283 283 285 285 289 289 287 287 288 288 289 288 286 284 283 282 283 281 281 282 282 280 279 278 278 279
255 256 257 256 255 256 258 262 264 268 271 272 274 276 278 278 280 282 282 282 283 284 286 286 288 287 288 287 288 288 287 286 284 283 281 279 279 280 282 282 280 278 278 279
255 256 257 257 255 256 260 264 266 268 270 271 274 276 276 277 279 282 283 283 282 283 284 286 287 287 287 287 288 287 287 287 287 283 280 278 278 280 282 283 282 281 280 280
255 256 257 256 256 260 261 263 266 268 270 271 273 274 275 276 277 279 283 282 281 281 282 284 286 286 288 287 285 286 286 288 290 287 282 282 282 282 282 283 283 282 282 283
254 254 254 254 257 261 263 264 267 269 271 270 270 271 273 275 277 279 281 283 285 284 283 285 285 285 286 286 286 284 285 286 288 286 285 285 284 284 284 284 283 282 281 282
251 253 255 257 259 260 261 264 266 268 270 271 274 275 274 275 277 280 282 283 285 285 285 283 285 284 285 285 288 290 288 287 285 285 286 286 286 286 285 284 283 283 283 283
249 252 255 258 258 258 260 262 265 268 270 272 274 275 276 277 278 280 282 283 284 285 286 285 287 286 286 286 288 289 288 287 287 287 288 288 287 286 285 284 284 284 284 284
250 251 254 257 257 258 259 261 264 268 270 271 272 274 276 278 279 281 280 281 283 284 286 287 287 286 286 287 287 288 288 289 290 289 289 288 286 285 285 286 286 285 285 284
252 253 255 256 257 259 260 261 263 267 270 272 273 274 276 277 279 279 279 281 282 283 284 286 286 286 287 287 287 287 287 288 289 289 289 288 288 287 287 287 287 286 285 284
253 255 256 258 259 259 260 262 263 264 268 271 273 275 276 277 277 278 279 281 281 282 283 284 284 284 284 284 285 285 285 286 287 287 288 289 290 290 289 289 288 287 286 286
252 254 257 260 261 262 262 261 261 263 266 269 271 273 274 276 277 278 279 280 280 281 283 283 284 284 283 284 283 283 284 285 286 288 288 289 290 290 290 289 288 287 287 286
250 253 255 258 261 262 263 262 262 263 265 268 270 273 273 274 276 277 278 279 280 281 282 282 283 283 283 282 283 283 283 284 286 288 289 290 291 290 290 288 287 286 286 286
251 252 254 257 259 261 264 265 266 267 267 269 271 272 272 274 276 277 278 278 280 282 281 281 282 283 283 283 283 284 284 285 287 288 289 290 290 290 290 289 287 286 286 286
252 252 253 255 257 260 262 263 266 269 271 274 275 274 273 273 275 276 277 279 280 281 282 281 281 280 281 282 284 285 286 288 288 288 289 289 289 288 289 289 288 287 285 285
251 252 254 255 256 258 261 264 267 270 273 274 275 276 277 278 277 278 279 279 280 280 282 282 281 280 280 282 283 285 287 288 289 288 288 288 289 288 288 287 288 288 287 287
257 256 255 256 258 260 263 266 268 271 273 275 276 277 279 279 278 278 279 281 282 283 282 280 281 282 282 284 284 284 285 286 287 287 287 287 287 288 288 287 288 287 287 288
259 259 259 260 261 263 265 268 269 270 273 276 278 278 278 278 278 278 279 281 282 283 283 282 282 283 285 285 284 284 284 284 285 285 286 286 285 285 285 286 288 288 288 289
259 260 261 262 265 267 268 270 270 271 272 273 276 277 278 278 278 278 280 282 284 285 287 287 286 285 286 286 286 285 284 283 283 283 284 285 284 284 285 285 286 288 290 292
260 260 264 266 268 269 270 271 271 272 272 273 276 279 280 279 279 280 281 283 283 286 288 289 290 289 286 285 286 286 285 283 282 281 282 283 284 286 287 287 287 288 290 292
264 264 266 269 271 270 270 269 271 273 274 277 279 280 280 280 282 284 286 286 286 288 288 289 291 292 290 288 287 288 287 287 287 284 282 284 285 287 288 288 287 287 289 291
269 268 268 271 272 272 270 270 271 273 275 278 279 279 279 282 285 286 286 287 288 289 289 291 292 293 292 290 288 288 288 289 288 286 284 284 285 287 289 290 290 289 289 291
271 272 269 268 271 272 273 274 275 275 274 276 279 280 280 282 286 287 287 288 290 289 288 289 290 292 293 292 290 289 289 290 287 284 284 285 285 286 288 289 291 291 292 293
Height
5879 5880 5881 5881 5881 5881 5882 5881 5881 5880 5879 5879 5877 5877 5876 5875 5875 5874 5873 5872 5870 5869 5867 5865 5864 5863 5862 5861 5859 5858 5857 5856 5854 5853 5852 5850 5849 5848 5847 5846 5846 5845 5845 5844
5873 5874 5874 5874 5875 5875 5875 5875 5874 5874 5873 5873 5871 5870 5870 5869 5868 5867 5866 5865 5863 5862 5861 5859 5857 5856 5855 5854 5853 5851 5850 5849 5848 5847 5845 5844 5843 5842 5840 5840 5839 5838 5838 5837
5866 5867 5867 5867 5869 5869 5869 5868 5868 5867 5867 5866 5865 5864 5863 5862 5860 5859 5858 5857 5856 5855 5854 5853 5851 5849 5848 5847 5846 5845 5844 5842 5841 5840 5839 5837 5836 5835 5834 5833 5832 5831 5831 5830
5859 5860 5860 5863 5862 5862 5862 5862 5861 5861 5860 5859 5859 5857 5856 5854 5853 5852 5851 5850 5849 5848 5847 5846 5843 5841 5841 5840 5839 5838 5836 5835 5834 5833 5831 5830 5829 5828 5827 5826 5825 5824 5823 5823
5851 5851 5852 5854 5855 5855 5855 5854 5854 5854 5853 5852 5852 5850 5849 5847 5846 5845 5843 5842 5842 5840 5839 5838 5836 5835 5835 5833 5832 5830 5828 5828 5827 5826 5824 5823 5822 5821 5820 5819 5818 5817 5816 5815
5842 5843 5844 5848 5848 5847 5848 5846 5847 5847 5846 5846 5845 5844 5843 5841 5839 5838 5836 5835 5834 5833 5832 5831 5829 5828 5827 5826 5824 5822 5822 5821 5819 5818 5817 5815 5814 5813 5812 5811 5810 5809 5808 5807
5833 5834 5836 5839 5839 5840 5841 5840 5840 5839 5839 5838 5837 5837 5836 5834 5832 5831 5830 5829 5827 5826 5825 5823 5822 5820 5819 5818 5817 5815 5814 5812 5811 5810 5809 5807 5806 5805 5804 5803 5802 5801 5800 5799
5825 5826 5829 5830 5831 5833 5832 5832 5832 5832 5831 5831 5830 5829 5828 5827 5826 5824 5823 5822 5820 5819 5818 5816 5814 5813 5812 5811 5809 5807 5806 5804 5803 5801 5800 5799 5798 5797 5796 5795 5794 5792 5791 5791
5817 5820 5821 5822 5823 5824 5823 5824 5824 5824 5824 5823 5822 5821 5821 5819 5818 5817 5816 5814 5813 5812 5811 5809 5807 5805 5804 5803 5801 5800 5798 5796 5794 5794 5792 5791 5790 5789 5788 5787 5786 5785 5784 5783
5808 5809 5811 5813 5814 5815 5815 5815 5816 5816 5816 5815 5815 5814 5813 5812 5811 5810 5808 5807 5805 5804 5803 5801 5799 5798 5796 5795 5793 5792 5791 5789 5787 5786 5784 5783 5782 5781 5780 5779 5778 5777 5776 5775
5799 5801 5802 5804 5805 5807 5807 5807 5808 5808 5808 5807 5807 5806 5805 5804 5803 5801 5800 5798 5797 5796 5795 5794 5792 5791 5789 5788 5786 5784 5783 5782 5780 5778 5777 5776 5775 5773 5772 5771 5770 5769 5767 5766
5791 5793 5795 5797 5797 5798 5799 5800 5800 5800 5800 5799 5799 5798 5797 5796 5795 5793 5792 5789 5788 5788 5787 5786 5784 5783 5782 5780 5778 5777 5776 5774 5773 5772 5770 5768 5767 5766 5764 5763 5762 5760 5759 5757
5783 5785 5787 5788 5789 5790 5791 5792 5792 5792 5791 5791 5790 5790 5789 5788 5786 5785 5783 5782 5781 5780 5779 5778 5776 5775 5774 5772 5771 5770 5768 5767 5766 5764 5762 5761 5759 5758 5756 5755 5753 5752 5750 5749
5775 5777 5778 5780 5781 5782 5783 5783 5783 5783 5783 5782 5782 5781 5780 5779 5778 5777 5776 5775 5774 5772 5771 5770 5769 5767 5765 5764 5763 5762 5761 5759 5758 5756 5755 5753 5751 5750 5748 5746 5745 5743 5742 5740
5767 5769 5770 5771 5772 5773 5774 5774 5775 5774 5774 5774 5773 5773 5772 5771 5770 5770 5769 5767 5766 5764 5763 5762 5761 5760 5758 5757 5756 5754 5753 5751 5750 5749 5747 5745 5743 5742 5740 5738 5737 5735 5733 5732
5760 5761 5762 5763 5764 5765 5765 5766 5766 5766 5765 5765 5765 5764 5764 5763 5762 5761 5760 5759 5758 5756 5755 5754 5753 5752 5751 5749 5748 5746 5745 5743 5742 5741 5739 5737 5735 5733 5731 5730 5728 5727 5725 5724
5752 5753 5754 5756 5757 5757 5757 5758 5758 5758 5757 5757 5757 5756 5755 5754 5754 5752 5751 5750 5749 5748 5747 5746 5745 5744 5743 5741 5740 5738 5737 5735 5734 5732 5730 5729 5727 5725 5723 5721 5720 5718 5717 5716
5743 5745 5746 5748 5749 5749 5750 5750 5750 5749 5749 5749 5748 5748 5747 5746 5745 5745 5744 5743 5742 5740 5739 5738 5737 5736 5734 5733 5732 5730 5728 5727 5725 5724 5722 5721 5719 5717 5715 5714 5712 5711 5709 5708
5735 5737 5738 5740 5741 5742 5742 5742 5742 5741 5741 5740 5740 5739 5738 5737 5737 5736 5735 5734 5733 5732 5731 5730 5729 5728 5726 5725 5724 5722 5720 5719 5717 5716 5714 5713 5711 5710 5708 5707 5705 5703 5702 5701
5727 5729 5730 5731 5733 5733 5734 5734 5733 5733 5733 5732 5732 5731 5729 5729 5728 5727 5726 5726 5725 5724 5723 5722 5721 5719 5718 5717 5715 5714 5713 5711 5710 5708 5707 5705 5704 5703 5701 5700 5698 5696 5695 5694
5719 5721 5722 5723 5724 5725 5725 5725 5726 5725 5725 5724 5724 5723 5722 5721 5719 5719 5718 5718 5717 5716 5715 5713 5712 5711 5710 5708 5707 5706 5705 5703 5702 5701 5699 5698 5697 5696 5694 5693 5691 5690 5689 5687
5712 5713 5714 5715 5716 5716 5717 5717 5717 5717 5717 5717 5716 5715 5714 5713 5712 5711 5710 5710 5709 5708 5706 5705 5704 5702 5701 5700 5698 5697 5696 5695 5694 5693 5692 5691 5690 5689 5687 5686 5685 5683 5682 5680
5705 5706 5707 5708 5708 5709 5709 5709 5709 5709 5709 5709 5708 5707 5706 5705 5704 5704 5703 5702 5701 5700 5699 5697 5695 5694 5693 5692 5691 5690 5689 5688 5687 5686 5685 5684 5682 5682 5680 5679 5678 5676 5675 5674
5699 5700 5700 5701 5701 5702 5702 5702 5702 5702 5702 5701 5701 5700 5699 5698 5697 5697 5696 5695 5694 5693 5691 5690 5688 5687 5686 5685 5684 5683 5681 5680 5679 5678 5677 5676 5675 5674 5673 5672 5671 5670 5668 5667
5694 5695 5695 5695 5695 5695 5696 5695 5695 5695 5695 5695 5694 5693 5692 5692 5691 5690 5689 5688 5687 5686 5684 5683 5682 5680 5679 5678 5677 5676 5675 5674 5673 5671 5670 5669 5668 5667 5666 5665 5664 5663 5662 5660
5690 5690 5690 5690 5690 5689 5689 5689 5689 5689 5688 5688 5687 5687 5686 5685 5684 5684 5683 5681 5680 5679 5678 5677 5676 5674 5673 5672 5671 5670 5669 5668 5667 5665 5664 5663 5662 5661 5660 5659 5658 5657 5656 5654
5686 5685 5685 5685 5685 5684 5684 5684 5684 5683 5682 5682 5681 5681 5680 5679 5678 5677 5677 5676 5674 5673 5672 5671 5670 5669 5667 5666 5665 5664 5663 5661 5660 5659 5658 5657 5656 5655 5654 5653 5652 5651 5650 5648